Weather in Urgench

Uzbekistan     41°32′58″N   60°37′52″E
temp.,
°C
wind,
m/s
gust,
m/s
humid.,
%
clouds,
%
prec.,
mm/h
press.,
hPa
HPBL,
m
19 may, wed
wed1923:00+28n47100 0.0 100792
02:00+26nne33111 0.0 100622
05:00+24ne44125 0.0 100643
08:00+28ne34145 0.0 1007172
11:00+33e119100 0.0 10071329
14:00+35ne117100 0.0 10063547
17:00+35nne237100 0.0 10064093
20:00+32nw341197 0.0 100680
20 may, thu
thu2023:00+29nne5111512 0.0 1007284
02:00+26ne410226 0.0 1007210
05:00+25nne45280 0.0 100871
08:00+28ne22220 0.0 1009175
11:00+34nnw44140 0.0 10101999
14:00+36nnw66111 0.0 10103913
17:00+36n551198 0.0 10103888
20:00+33nne58130 0.0 1011209
21 may, fri
fri2123:00+29nne410175 0.0 1012188
02:00+27nne4828100 0.0 1012160
05:00+25ne33310 0.0 101332
08:00+29nne34220 0.0 1014210
11:00+34nne46142 0.0 10142176
14:00+36n56125 0.0 10134022
17:00+36nne771250 0.0 10134317
20:00+33ne610156 0.0 1013387
22 may, sat
sat2223:00+30ne612170 0.0 1013337
02:00+28e511210 0.0 1013264
05:00+25ene48150 0.0 1014149
08:00+28ene47110 0.0 1015343
11:00+32ne79100 0.0 10151885
14:00+34ne7770 0.0 10142693
17:00+34ne8980 0.0 10132809
20:00+31ne711120 0.0 1013459
23 may, sun
sun2323:00+28ne612170 0.0 1013405
02:00+26ne613190 0.0 1012387
05:00+24ne612230 0.0 1012335
08:00+27ne810210 0.0 1013824
11:00+31ene1012180 0.0 10132446
14:00+33ne1011150 0.0 10123058
17:00+34ne911140 0.0 10103368
20:00+31ne712160 0.0 1010557